CW1923 Weather Reports


Display with metric or nautical units.
time (UTC)temp
F
wind
direction
speed
MPH
gust
MPH
rain 1hr
in
rain 24hr
in
rain mn
in
humidity
%
barometer
mb
20260509172632 69 114 2.0 5.0 0.00 0.00 0.00 49 1015.0
20260509171632 69 97 2.0 5.0 0.00 0.00 0.00 50 1015.0
20260509171133 69 62 0.0 5.0 0.00 0.00 0.00 50 1015.0
20260509170633 69 60 0.0 5.0 0.00 0.00 0.00 50 1015.1
20260509165633 69 30 0.0 4.0 0.00 0.00 0.00 49 1015.2
20260509165131 69 30 2.0 4.0 0.00 0.00 0.00 49 1015.2
20260509164633 70 30 2.0 4.0 0.00 0.00 0.00 50 1015.3
20260509164131 69 30 2.0 5.0 0.00 0.00 0.00 50 1015.3
20260509163630 69 116 2.0 5.0 0.00 0.00 0.00 51 1015.4
20260509163132 69 136 2.0 7.0 0.00 0.00 0.00 51 1015.4
20260509162630 69 136 0.0 7.0 0.00 0.00 0.00 51 1015.3
20260509162134 69 105 0.0 7.0 0.00 0.00 0.00 51 1015.2
20260509161632 69 133 2.0 5.0 0.00 0.00 0.00 51 1015.3
20260509161133 69 131 2.0 5.0 0.00 0.00 0.00 51 1015.3
20260509160133 70 108 2.0 5.0 0.00 0.00 0.00 52 1015.3
20260509155623 70 107 2.0 5.0 0.00 0.00 0.00 50 1015.3
20260509155122 70 97 2.0 5.0 0.00 0.00 0.00 49 1015.4
20260509154119 71 58 2.0 5.0 0.00 0.00 0.00 48 1015.3
20260509153116 72 310 4.0 14.0 0.00 0.00 0.00 47 1015.4
20260509152612 73 110 2.0 11.0 0.00 0.00 0.00 46 1015.4
20260509151104 72 158 4.0 12.0 0.00 0.00 0.00 46 1015.6
20260509150602 72 191 2.0 9.0 0.00 0.00 0.00 47 1015.6
20260509150104 71 222 2.0 9.0 0.00 0.00 0.00 49 1015.6
20260509145603 71 144 2.0 5.0 0.00 0.00 0.00 48 1015.7
20260509145104 70 116 2.0 9.0 0.00 0.00 0.00 49 1015.5
20260509144603 70 119 2.0 9.0 0.00 0.00 0.00 50 1015.7
20260509144103 70 91 2.0 5.0 0.00 0.00 0.00 48 1015.7
20260509143604 71 114 2.0 5.0 0.00 0.00 0.00 48 1015.8
20260509142602 70 169 2.0 5.0 0.00 0.00 0.00 50 1015.8
20260509141604 71 228 2.0 7.0 0.00 0.00 0.00 49 1015.9
20260509140603 71 35 2.0 5.0 0.00 0.00 0.00 48 1015.9
20260509140104 70 139 2.0 5.0 0.00 0.00 0.00 53 1015.8
20260509135604 69 137 4.0 11.0 0.00 0.00 0.00 52 1016.0
20260509135103 69 79 4.0 11.0 0.00 0.00 0.00 49 1015.9
20260509134606 70 104 4.0 12.0 0.00 0.00 0.00 49 1016.0
20260509134103 71 166 5.0 12.0 0.00 0.00 0.00 49 1016.0
20260509133602 71 189 4.0 12.0 0.00 0.00 0.00 49 1016.0
20260509133104 71 130 2.0 7.0 0.00 0.00 0.00 50 1016.1
20260509132604 71 227 4.0 12.0 0.00 0.00 0.00 49 1016.2
20260509132104 70 195 4.0 14.0 0.00 0.00 0.00 50 1016.4
20260509131606 71 130 4.0 14.0 0.00 0.00 0.00 52 1016.4
20260509131103 71 87 4.0 9.0 0.00 0.00 0.00 50 1016.4
20260509130605 71 144 4.0 9.0 0.00 0.00 0.00 51 1016.5
20260509130105 70 168 2.0 9.0 0.00 0.00 0.00 50 1016.5
20260509125602 69 127 2.0 5.0 0.00 0.00 0.00 53 1016.6
20260509125104 68 51 2.0 7.0 0.00 0.00 0.00 53 1016.6
20260509124554 67 93 4.0 11.0 0.00 0.00 0.00 54 1016.6
20260509124055 67 148 4.0 11.0 0.00 0.00 0.00 53 1016.7
20260509123554 67 172 2.0 9.0 0.00 0.00 0.00 54 1016.6
20260509123055 68 149 2.0 7.0 0.00 0.00 0.00 55 1016.7
20260509122053 68 159 2.0 5.0 0.00 0.00 0.00 54 1016.9
20260509121048 68 110 2.0 9.0 0.00 0.00 0.00 54 1017.0
20260509120038 69 1 2.0 5.0 0.00 0.00 0.00 52 1017.0
20260509115036 70 353 2.0 7.0 0.00 0.00 0.00 51 1017.1
20260509114536 70 156 4.0 11.0 0.00 0.00 0.00 51 1017.1
20260509113534 69 40 2.0 12.0 0.00 0.00 0.00 53 1017.3
20260509111534 70 173 2.0 9.0 0.00 0.00 0.00 53 1017.5
20260509111034 68 92 4.0 12.0 0.00 0.00 0.00 53 1017.4
20260509110533 67 105 2.0 12.0 0.00 0.00 0.00 55 1017.7
20260509110031 68 91 2.0 7.0 0.00 0.00 0.00 54 1017.6
20260509105533 68 135 4.0 9.0 0.00 0.00 0.00 54 1017.6
20260509105031 69 221 4.0 9.0 0.00 0.00 0.00 52 1017.7
20260509104531 70 118 2.0 9.0 0.00 0.00 0.00 53 1017.7
20260509104029 69 156 4.0 14.0 0.00 0.00 0.00 52 1017.6
20260509103528 68 74 4.0 14.0 0.00 0.00 0.00 54 1017.8
20260509103022 68 125 4.0 14.0 0.00 0.00 0.00 52 1017.8
20260509102017 69 80 4.0 14.0 0.00 0.00 0.00 55 1017.9
20260509101518 69 120 4.0 9.0 0.00 0.00 0.00 53 1017.9
20260509101028 68 212 4.0 12.0 0.00 0.00 0.00 53 1017.9
20260509095512 68 90 4.0 11.0 0.00 0.00 0.00 53 1017.9
20260509095013 67 122 4.0 9.0 0.00 0.00 0.00 56 1017.9
20260509094509 67 145 4.0 9.0 0.00 0.00 0.00 53 1018.1
20260509094009 68 69 4.0 9.0 0.00 0.00 0.00 54 1018.1
20260509093509 67 174 4.0 9.0 0.00 0.00 0.00 53 1018.0
20260509093006 67 124 4.0 12.0 0.00 0.00 0.00 54 1018.1
20260509092018 66 128 4.0 12.0 0.00 0.00 0.00 54 1018.0
20260509091016 66 97 4.0 11.0 0.00 0.00 0.00 54 1018.1
20260509090504 66 94 4.0 11.0 0.00 0.00 0.00 54 1018.2
20260509090005 66 176 4.0 9.0 0.00 0.00 0.00 55 1018.2
20260509085504 66 95 4.0 12.0 0.00 0.00 0.00 59 1018.1
20260509085006 65 131 4.0 12.0 0.00 0.00 0.00 58 1018.2
20260509084508 66 85 4.0 9.0 0.00 0.00 0.00 61 1018.1
20260509084007 65 133 4.0 11.0 0.00 0.00 0.00 62 1018.2
20260509083509 65 120 4.0 11.0 0.00 0.00 0.00 63 1018.2
20260509083005 65 125 2.0 5.0 0.00 0.00 0.00 63 1018.2
20260509082004 64 153 2.0 5.0 0.00 0.00 0.00 67 1018.4
20260509081504 63 160 2.0 5.0 0.00 0.00 0.00 68 1018.4
20260509081002 63 162 2.0 5.0 0.00 0.00 0.00 67 1018.5
20260509080502 63 118 2.0 5.0 0.00 0.00 0.00 67 1018.5
20260509080006 62 149 2.0 4.0 0.00 0.00 0.00 70 1018.9
20260509075506 62 149 2.0 5.0 0.00 0.00 0.00 70 1018.6
20260509074502 60 149 2.0 7.0 0.00 0.00 0.00 71 1018.5
20260509073503 59 140 4.0 7.0 0.00 0.00 0.00 73 1018.6
20260509073005 59 156 2.0 7.0 0.00 0.00 0.00 74 1018.6
20260509072502 58 126 2.0 5.0 0.00 0.00 0.00 75 1018.6
20260509072003 58 114 2.0 5.0 0.00 0.00 0.00 78 1018.6
20260509071504 57 114 2.0 7.0 0.00 0.00 0.00 79 1018.6
20260509071003 57 114 2.0 7.0 0.00 0.00 0.00 79 1018.6
20260509070504 57 113 2.0 4.0 0.00 0.00 0.00 80 1018.7
20260509065003 56 106 2.0 5.0 0.00 0.00 0.00 81 1018.7
20260509064505 55 118 2.0 5.0 0.00 0.00 0.00 83 1018.6
20260509064005 55 122 2.0 7.0 0.00 0.00 0.00 84 1018.5
20260509063505 54 124 2.0 7.0 0.00 0.00 0.00 85 1018.6
20260509062501 53 130 2.0 5.0 0.00 0.00 0.00 88 1018.6
20260509061959 52 130 0.0 5.0 0.00 0.00 0.00 90 1018.5
20260509061452 51 112 0.0 0.0 0.00 0.00 0.00 91 1018.6
20260509060449 50 112 0.0 0.0 0.00 0.00 0.00 92 1018.6
20260509055939 49 112 0.0 0.0 0.00 0.00 0.00 93 1018.5
20260509054935 48 110 0.0 0.0 0.00 0.00 0.00 93 1018.6
20260509054433 48 110 0.0 0.0 0.00 0.00 0.00 93 1018.5
20260509053932 47 110 0.0 0.0 0.00 0.00 0.00 93 1018.5
20260509053429 47 110 0.0 0.0 0.00 0.00 0.00 93 1018.3
20260509052414 47 107 0.0 0.0 0.00 0.00 0.00 93 1018.2
20260509051921 46 107 0.0 0.0 0.00 0.00 0.00 93 1018.2
20260509051404 46 106 0.0 0.0 0.00 0.00 0.00 93 1018.2
20260509050403 46 106 0.0 0.0 0.00 0.00 0.00 93 1018.1
20260509045904 46 106 0.0 0.0 0.00 0.00 0.00 93 1018.1
20260509045406 46 106 0.0 0.0 0.00 0.00 0.00 93 1018.1
20260509044904 46 106 0.0 0.0 0.00 0.00 0.00 93 1018.1
20260509044404 46 106 0.0 0.0 0.00 0.00 0.00 93 1018.1
20260509043905 46 106 0.0 0.0 0.00 0.00 0.00 93 1018.1
20260509043401 46 106 0.0 0.0 0.00 0.00 0.00 93 1018.2
20260509042847 46 106 0.0 0.0 0.00 0.00 0.00 93 1018.2
20260509042339 46 106 0.0 0.0 0.00 0.00 0.00 92 1018.1
20260509041835 46 106 0.0 0.0 0.00 0.00 0.00 92 1018.1
20260509041332 46 106 0.0 0.0 0.00 0.00 0.00 92 1018.1
20260509040834 46 106 0.0 0.0 0.00 0.00 0.00 92 1018.2
20260509040331 46 106 0.0 0.0 0.00 0.00 0.00 92 1018.2
20260509035832 46 106 0.0 0.0 0.00 0.00 0.00 92 1018.1
20260509035332 46 106 0.0 0.0 0.00 0.00 0.00 92 1018.2
20260509034331 46 106 0.0 0.0 0.00 0.00 0.00 92 1018.1
20260509033836 46 106 0.0 0.0 0.00 0.00 0.00 92 1018.0
20260509033329 46 106 0.0 0.0 0.00 0.00 0.00 92 1018.1
20260509032830 46 106 0.0 0.0 0.00 0.00 0.00 92 1018.1
20260509032332 46 106 0.0 0.0 0.00 0.00 0.00 92 1018.1
20260509031831 46 106 0.0 0.0 0.00 0.00 0.00 92 1018.2
20260509030818 46 106 0.0 0.0 0.00 0.00 0.00 91 1018.1
20260509030311 46 106 0.0 0.0 0.00 0.00 0.00 91 1018.1
20260509025805 46 106 0.0 0.0 0.00 0.00 0.00 91 1018.1
20260509025307 46 106 0.0 0.0 0.00 0.00 0.00 91 1018.2
20260509024803 46 106 0.0 0.0 0.00 0.00 0.00 91 1018.2
20260509024302 46 106 0.0 0.0 0.00 0.00 0.00 91 1018.3
20260509023303 46 106 0.0 0.0 0.00 0.00 0.00 91 1018.3
20260509022804 46 106 0.0 0.0 0.00 0.00 0.00 91 1018.2
20260509022306 46 106 0.0 0.0 0.00 0.00 0.00 90 1018.3
20260509021804 47 106 0.0 0.0 0.00 0.00 0.00 90 1018.2
20260509021303 47 106 0.0 0.0 0.00 0.00 0.00 90 1018.2
20260509020304 47 106 0.0 0.0 0.00 0.00 0.00 90 1018.2
20260509015302 47 106 0.0 0.0 0.00 0.00 0.00 90 1018.3
20260509014801 47 106 0.0 0.0 0.00 0.00 0.00 90 1018.3
20260509014302 47 106 0.0 0.0 0.00 0.00 0.00 90 1018.5
20260509013804 47 106 0.0 0.0 0.00 0.00 0.00 89 1018.5
20260509013304 47 106 0.0 0.0 0.00 0.00 0.00 89 1018.5
20260509012732 47 106 0.0 0.0 0.00 0.00 0.00 89 1018.5
20260509012232 47 106 0.0 0.0 0.00 0.00 0.00 89 1018.5
20260509011733 47 106 0.0 0.0 0.00 0.00 0.00 89 1018.5
20260509011230 47 106 0.0 0.0 0.00 0.00 0.00 88 1018.5
20260509010730 47 106 0.0 0.0 0.00 0.00 0.00 88 1018.5
20260509010235 47 106 0.0 0.0 0.00 0.00 0.00 88 1018.5
20260509005229 48 106 0.0 0.0 0.00 0.00 0.00 87 1018.5
20260509004729 48 106 0.0 0.0 0.00 0.00 0.00 87 1018.5
20260509004234 48 106 0.0 0.0 0.00 0.00 0.00 87 1018.5
20260509003231 48 106 0.0 0.0 0.00 0.00 0.00 87 1018.5
20260509002730 48 106 0.0 0.0 0.00 0.00 0.00 86 1018.5
20260509002229 49 106 0.0 0.0 0.00 0.00 0.00 86 1018.5
20260509001730 49 106 0.0 0.0 0.00 0.00 0.00 86 1018.4
20260509001225 49 106 0.0 0.0 0.00 0.00 0.00 86 1018.5
20260509000223 49 106 0.0 0.0 0.00 0.00 0.00 85 1018.5
20260508235719 49 106 0.0 0.0 0.00 0.00 0.00 85 1018.5
20260508235218 50 106 0.0 0.0 0.00 0.00 0.00 85 1018.4
20260508234715 50 106 0.0 0.0 0.00 0.00 0.00 85 1018.5
20260508234214 50 106 0.0 0.0 0.00 0.00 0.00 84 1018.6
20260508233702 50 106 0.0 0.0 0.00 0.00 0.00 84 1018.6
20260508233202 50 106 0.0 0.0 0.00 0.00 0.00 84 1018.6
20260508232157 50 106 0.0 0.0 0.00 0.00 0.00 83 1018.6
20260508231658 51 106 0.0 0.0 0.00 0.00 0.00 82 1018.6
20260508231159 51 106 0.0 0.0 0.00 0.00 0.00 82 1018.6
20260508230651 51 106 0.0 0.0 0.00 0.00 0.00 82 1018.6
20260508230153 51 106 0.0 0.0 0.00 0.00 0.00 82 1018.5
20260508225645 51 106 0.0 0.0 0.00 0.00 0.00 81 1018.5
20260508225145 51 106 0.0 0.0 0.00 0.00 0.00 81 1018.5
20260508224639 52 106 0.0 0.0 0.00 0.00 0.00 81 1018.6
20260508224141 52 106 0.0 0.0 0.00 0.00 0.00 81 1018.5
20260508223638 52 106 0.0 0.0 0.00 0.00 0.00 81 1018.5
20260508223132 52 106 0.0 0.0 0.00 0.00 0.00 81 1018.5
20260508222132 52 106 0.0 0.0 0.00 0.00 0.00 80 1018.4
20260508221631 53 106 0.0 0.0 0.00 0.00 0.00 80 1018.4
20260508220619 53 106 0.0 0.0 0.00 0.00 0.00 79 1018.3
20260508220117 53 106 0.0 0.0 0.00 0.00 0.00 79 1018.3
20260508215606 53 106 0.0 0.0 0.00 0.00 0.00 79 1018.3
20260508215108 53 106 0.0 0.0 0.00 0.00 0.00 78 1018.3
20260508214605 53 106 0.0 0.0 0.00 0.00 0.00 78 1018.3
20260508214104 54 106 0.0 0.0 0.00 0.00 0.00 78 1018.3
20260508213604 54 106 0.0 0.0 0.00 0.00 0.00 77 1018.3
20260508213102 54 106 0.0 0.0 0.00 0.00 0.00 77 1018.3
20260508212607 54 106 0.0 0.0 0.00 0.00 0.00 77 1018.3
20260508211606 55 106 0.0 0.0 0.00 0.00 0.00 75 1018.2
20260508211103 55 106 0.0 0.0 0.00 0.00 0.00 75 1018.2
20260508210603 55 106 0.0 0.0 0.00 0.00 0.00 74 1018.1
20260508210105 55 106 0.0 0.0 0.00 0.00 0.00 74 1018.1
20260508205102 56 106 0.0 0.0 0.00 0.00 0.00 73 1018.0
20260508204103 56 106 0.0 0.0 0.00 0.00 0.00 72 1018.0
20260508203607 56 106 0.0 0.0 0.00 0.00 0.00 72 1017.9
20260508203102 57 106 0.0 0.0 0.00 0.00 0.00 71 1017.9
20260508202602 57 106 0.0 0.0 0.00 0.00 0.00 70 1017.9
20260508201603 57 106 0.0 0.0 0.00 0.00 0.00 70 1017.9
20260508201101 58 106 0.0 0.0 0.00 0.00 0.00 70 1017.8
20260508200605 58 106 0.0 0.0 0.00 0.00 0.00 69 1017.7
20260508195101 58 106 0.0 4.0 0.00 0.00 0.00 69 1017.7
20260508194607 59 106 2.0 7.0 0.00 0.00 0.00 68 1017.7
20260508194105 59 105 2.0 7.0 0.00 0.00 0.00 68 1017.7
20260508193101 59 100 0.0 4.0 0.00 0.00 0.00 68 1017.6
20260508192558 60 100 0.0 5.0 0.00 0.00 0.00 68 1017.6
20260508191558 60 96 0.0 0.0 0.00 0.00 0.00 67 1017.4
20260508191054 60 96 0.0 2.0 0.00 0.00 0.00 66 1017.3
20260508190554 61 96 0.0 2.0 0.00 0.00 0.00 66 1017.3
20260508185552 62 96 0.0 2.0 0.00 0.00 0.00 64 1017.2
20260508185048 62 96 0.0 2.0 0.00 0.00 0.00 63 1017.1
20260508184548 62 96 0.0 2.0 0.00 0.00 0.00 62 1017.1
20260508184046 62 96 0.0 2.0 0.00 0.00 0.00 61 1017.0
20260508183035 63 96 0.0 2.0 0.00 0.00 0.00 59 1016.8
20260508182030 64 96 2.0 7.0 0.00 0.00 0.00 58 1016.9
20260508181535 64 105 2.0 7.0 0.00 0.00 0.00 57 1016.8
20260508181031 64 96 2.0 7.0 0.00 0.00 0.00 56 1016.7
20260508180535 65 105 2.0 4.0 0.00 0.00 0.00 55 1016.8
20260508180030 65 105 2.0 5.0 0.00 0.00 0.00 55 1016.7
20260508175532 65 118 2.0 5.0 0.00 0.00 0.00 54 1016.7
20260508175031 65 113 2.0 5.0 0.00 0.00 0.00 54 1016.7
20260508174533 65 113 2.0 5.0 0.00 0.00 0.00 54 1016.6
20260508174030 65 112 2.0 4.0 0.00 0.00 0.00 53 1016.7
20260508173532 65 112 2.0 4.0 0.00 0.00 0.00 52 1016.6